Location: Newark
(53.2933°N, 6.3959°W)
Time: 00:53:15
(UTC+00:00)

Envisat - Pass Details

Date: 21 February 2020
Orbit: 764 x 766 km, 98.1° (Epoch: 01 April)

Event Time Altitude Azimuth Distance (km) Brightness Sun altitude
Rises 19:07:24 0° 200° (SSW) 3,224 6.5 -12.6°
Reaches altitude 10° 19:10:04 10° 213° (SSW) 2,303 5.9 -13.0°
Maximum altitude 19:14:15 25° 269° (W) 1,500 5.5 -13.7°
Drops below altitude 10° 19:18:28 10° 324° (NW) 2,317 6.0 -14.3°
Sets 19:21:11 0° 338° (NNW) 3,249 6.6 -14.7°
